Miscellaneous Local Product
Issued by NWS Hastings, NE

Home | Current Version | Previous Version | Text Only | Print | Product List | Glossary On
Versions: 1 2 3 4 5 6 7 8 9 10 11 12 13 14 15 16 17 18 19 20 21 22 23 24 25 26 27 28 29 30 31 32 33 34 35 36 37 38 39 40 41 42 43 44 45 46 47 48 49 50
961
AXUS43 KGID 190402
MISGRI

GID CWA HOURLY WEATHER ROUNDUP
NATIONAL WEATHER SERVICE HASTINGS NE
1000 PM CST WED JAN 18 2017

NOTE: "FAIR" INDICATES FEW OR NO CLOUDS BELOW 12,000 FEET WITH NO
SIGNIFICANT WEATHER AND/OR OBSTRUCTIONS TO VISIBILITY.

...SOUTH CENTRAL NEBRASKA...

CITY           SKY/WX    TMP DP  RH WIND       PRES   REMARKS
GRAND ISLAND   CLEAR     38  36  92 S10       29.81F WCI  31
HASTINGS       PTCLDY    38  34  85 S6        29.83S WCI  33
KEARNEY        PTCLDY    36  32  87 S6        29.79F WCI  31
ORD            CLEAR     36  33  89 SE7       29.77F WCI  30
YORK           CLEAR     41  36  81 S13       29.84S
AURORA         CLEAR     39  35  85 S13       29.82F WCI  31
LEXINGTON      CLEAR     36  33  90 CALM      29.78F
HOLDREGE       MOCLDY    37  35  93 S6        29.79F WCI  32
HEBRON         CLEAR     38  33  84 S9        29.87F WCI  31

...NEBRASKA PANHANDLE...

CITY           SKY/WX    TMP DP  RH WIND       PRES   REMARKS
CHADRON        CLOUDY    25  20  81 SW6       29.62F WCI  18
ALLIANCE       CLOUDY    22  20  92 CALM      29.65F
SCOTTSBLUFF    CLOUDY    31  23  72 CALM      29.67F
SIDNEY         CLOUDY    27  23  85 W7        29.68F WCI  19

...WESTERN AND NORTH CENTRAL NEBRASKA...

CITY           SKY/WX    TMP DP  RH WIND       PRES   REMARKS
VALENTINE      CLOUDY    34  24  67 CALM      29.67F
AINSWORTH      CLEAR     35  30  82 S10       29.69S WCI  27
ONEILL         CLEAR     38  36  93 S8        29.74S WCI  32
BROKEN BOW     CLEAR     37  35  92 S8        29.75F WCI  31
IMPERIAL       CLOUDY    30  26  85 SW5       29.73F WCI  25
NORTH PLATTE   CLOUDY    30  27  88 E3        29.74F
MCCOOK         CLEAR     34  34 100 CALM      29.76F FOG

...EASTERN NEBRASKA...

CITY           SKY/WX    TMP DP  RH WIND       PRES   REMARKS
NORFOLK        CLEAR     37  33  85 S9        29.81S WCI  30
SO SIOUX CITY  CLEAR     37  34  89 SE10      29.83F WCI  30
TEKAMAH        CLEAR     35  32  88 SE13      29.87F WCI  26
COLUMBUS       CLEAR     39  34  81 S10       29.84F WCI  32
ALBION         CLEAR     37  35  94 SE7       29.81S WCI  31
OMAHA EPPLEY   CLEAR     40  34  79 S12       29.89S WCI  33
OFFUTT AFB     CLEAR     38  38  99 SE10      29.89S WCI  32
MILLARD        CLEAR     40  36  84 SE3       29.89S
LINCOLN        CLEAR     40  32  73 S14       29.88F WCI  32
NEBRASKA CITY  PTCLDY    37  35  90 S8        29.91S WCI  31
BEATRICE       CLEAR     39  33  76 SE8       29.89S WCI  34
FALLS CITY     PTCLDY    34  32  92 CALM      29.93S

...NORTHERN KANSAS...

CITY           SKY/WX    TMP DP  RH WIND       PRES   REMARKS
GOODLAND       CLOUDY    35  30  82 S8        29.74F WCI  29
HILL CITY      CLOUDY    41  39  93 SE7       29.80F
NORTON         MOCLDY    37  34  87 SE6       29.77F WCI  33
PHILLIPSBURG   CLOUDY    41  41 100 SE6       29.81F
SMITH CENTER   CLEAR     36  34  93 SE10      29.83F WCI  28
HAYS           CLEAR     40  39  97 SE8       29.82  WCI  34
RUSSELL        CLEAR     42  38  85 S16       29.81F
CONCORDIA      CLOUDY    41  38  89 SE9       29.87S
SALINA         CLEAR     45  37  73 S13       29.89S
TOPEKA         PTCLDY    37  33  85 E3        29.95S



USA.gov is the U.S. government's official web portal to all federal, state and local government web resources and services.